Tracking 27097 objects as of 30-Mar-2023
HD Live streaming from Space Station
objects crossing your sky now

SAKURA 2A (CS-2A)

Track SAKURA 2A (CS-2A) now!
SAKURA 2A (CS-2A) is classified as:


NORAD ID: 13782
Int'l Code: 1983-006A
Perigee: 36,008.5 km
Apogee: 36,068.6 km
Inclination: 12.2 °
Period: 1,448.6 minutes
Semi major axis: 42409 km
RCS: 5.8102 m2 (large)
Launch date: February 4, 1983
Source: Japan (JPN)
Launch site: TANEGASHIMA SPACE CENTER (TNSTA)
Your satellite tracking list
Your tracking list is empty




NASA's NSSDC Master Catalog

Two Line Element Set (TLE):
1 13782U 83006A   23088.78452147  .00000071  00000-0  00000-0 0  9995
2 13782  12.2159 328.8009 0007085 312.5161 228.4085  0.99404852116167
Source of the keplerian elements: AFSPC